[[{"header":{"parameterUnit":"m.s-1","parameterCategory":1,"la1":30.2991,"la2":30.254,"lo1":-89.0895,"lo2":-89.0444,"dy":0.0017,"dx":0.0017,"nx":28,"ny":28,"refTime":"2025-04-01T09:00:00:Z","depth":0,"parameterNumber":2,"parameterNumberName":"U-component_of_WINDS"},"data":[0,0,0,0,0,0,0,0,0,0,0,0,0,0,0,0,0,0,0,0,0,0,0,0,0,0,0,0,0,0,0,0,0,0,0,0,0,0,0,0,0,0,0,0,0,0,0,0,0,0,0,0,0,0,0,0,0,0,-5.6402,-5.6403,0,-5.6481,-5.6482,-5.6483,-5.6386,-5.6382,-5.6379,-5.6375,-5.6455,-5.646,-5.6466,0,0,0,0,0,0,0,0,0,0,0,0,0,-5.6167,-5.6172,-5.6402,-5.6403,-5.6404,-5.6481,-5.6482,-5.6483,-5.6387,-5.6382,-5.6378,-5.6374,-5.6453,-5.646,-5.6466,0,0,0,0,0,0,0,0,0,0,0,0,0,-5.626,-5.6173,-5.6402,-5.6365,-5.6362,-5.6481,-5.6482,-5.6483,-5.6387,-5.6382,-5.6377,-5.6372,-5.6451,-5.6459,-5.6467,-5.6625,0,0,-5.6492,-5.6496,0,0,0,0,0,0,0,0,-5.6255,-5.6268,-5.6369,-5.6368,-5.6365,-5.6418,-5.6428,-5.6531,-5.6389,-5.6378,-5.6375,-5.6369,-5.6447,-5.6455,-5.6482,-5.6628,-5.6632,-5.6493,-5.6498,-5.6501,-5.6504,0,0,0,0,0,0,0,-5.6248,-5.6264,-5.6433,-5.6371,-5.6368,-5.6344,-5.6352,-5.6447,-5.6441,-5.6378,-5.6372,-5.6382,-5.6445,-5.6474,-5.6483,-5.6633,-5.6493,-5.65,-5.6505,-5.6508,-5.6912,-5.6918,0,0,0,0,0,0,-5.6246,-5.626,-5.643,-5.6435,-5.6296,-5.6353,-5.6361,-5.6406,-5.644,-5.644,-5.6387,-5.6378,-5.6463,-5.6473,-5.6485,-5.667,-5.6501,-5.6509,-5.6514,-5.6907,-5.6914,-5.692,0,0,0,0,0,0,-5.6242,-5.6262,-5.6427,-5.6346,-5.6365,-5.6363,-5.6414,-5.6411,-5.644,-5.6447,-5.6445,-5.6418,-5.6459,-5.6474,-5.6591,-5.6672,-5.6513,-5.652,-5.69,-5.6909,-5.6917,-5.7043,0,0,0,0,0,0,-5.6235,-5.6261,-5.6321,-5.6348,-5.637,-5.6532,-5.642,-5.6416,-5.6454,-5.6443,-5.6475,-5.6475,-5.6456,-5.6579,-5.6599,-5.668,-5.6526,-5.6892,-5.6904,-5.6914,-5.7032,-5.7055,-5.7075,0,0,0,0,0,-5.6227,-5.6353,-5.6324,-5.6345,-5.6444,-5.6536,-5.6549,-5.6524,-5.6461,-5.6521,-5.6526,-5.6474,-5.6661,-5.6592,-5.6613,-5.6698,-5.6887,-5.69,-5.6913,-5.7022,-5.7051,-5.7075,0,0,0,0,0,0,-5.6335,-5.6356,-5.6324,-5.6463,-5.6499,-5.652,-5.6594,-5.6556,-5.661,-5.6597,-5.6564,-5.6572,-5.6696,-5.671,-5.6632,-5.6853,-5.6763,-5.6782,-5.6839,-5.6866,-5.6887,-5.688,-5.6533,0,0,0,0,0,-5.6375,-5.6448,-5.6463,-5.6584,-5.6603,-5.6597,-5.6636,-5.6614,-5.665,-5.6664,-5.6677,-5.6713,-5.678,-5.6824,-5.6886,-5.7035,-5.7039,-5.7104,-5.7126,-5.7144,-5.7158,-5.7237,-5.7265,-5.6963,-5.6963,-5.6963,0,0,-5.6458,-5.6478,-5.6527,-5.6606,-5.6631,-5.6707,-5.661,-5.6694,-5.675,-5.6677,-5.6787,-5.6799,-5.6837,-5.697,-5.703,-5.6985,-5.7244,-5.716,-5.7175,-5.718,-5.7253,-5.7282,-5.7307,-5.6972,-5.697,-5.6969,0,0,-5.6647,-5.6671,-5.6774,-5.6802,-5.6842,-5.6836,-5.6862,-5.689,-5.6894,-5.7005,-5.6951,-5.7018,-5.7134,-5.7163,-5.7193,-5.7397,-5.7351,-5.7418,-5.7531,-5.7608,-5.7632,-5.7652,-5.7723,-5.7749,-5.7434,-5.7434,-5.7435,0,-5.6744,-5.6857,-5.6831,-5.692,-5.6956,-5.6895,-5.6998,-5.7027,-5.7085,-5.7111,-5.7061,-5.7205,-5.7227,-5.7366,-5.7416,-5.7443,-5.7469,-5.7412,-5.763,-5.7651,-5.767,-5.7737,-5.7764,-5.7442,-5.7441,-5.744,-5.744,0,-5.6974,-5.7054,-5.7132,-5.719,-5.7236,-5.7332,-5.732,-5.737,-5.7345,-5.7346,-5.7459,-5.7484,-5.7549,-5.7581,-5.7558,-5.7717,-5.7688,-5.7636,-5.7544,-5.7707,-5.7769,-5.7795,-5.7453,-5.745,-5.7448,-5.7446,0,0,-5.723,-5.7274,-5.7303,-5.7329,-5.737,-5.743,-5.7524,-5.7589,-5.7631,-5.7675,-5.7751,-5.7852,-5.7803,-5.7838,-5.7818,-5.7886,-5.8044,-5.7824,-5.7825,-5.7862,-5.8219,-5.8256,-5.8286,-5.8015,-5.802,-5.8024,-5.8215,0,-5.7418,-5.7579,-5.756,-5.7714,-5.7787,-5.7731,-5.7813,-5.7847,-5.785,-5.7912,-5.7916,-5.7987,-5.7919,-5.7939,-5.8005,-5.8011,-5.8114,-5.7997,-5.8085,-5.8088,-5.8073,-5.8319,-5.8358,-5.8537,-5.8239,-5.8243,-5.8246,0,-5.7657,-5.7709,-5.7871,-5.7901,-5.7931,-5.8005,-5.8062,-5.8123,-5.8161,-5.8159,-5.8199,-5.8167,-5.8261,-5.8172,-5.83,-5.8221,-5.8256,-5.8265,-5.8271,-5.8275,-5.8174,-5.8327,-5.8593,-5.8619,-5.8285,-5.8282,-5.8279,0,-5.7824,-5.7936,-5.8046,-5.8071,-5.8109,-5.8162,-5.8181,-5.8213,-5.8254,-5.8305,-5.833,-5.8392,-5.8425,-5.8474,-5.846,-5.8396,-5.8591,-5.85,-5.859,-5.8591,-5.863,-5.8627,-5.8903,-5.8659,-5.8659,-5.8658,-5.8658,0,-5.8033,-5.8134,-5.8122,-5.819,-5.8301,-5.8279,-5.8389,-5.8401,-5.8431,-5.85,-5.8457,-5.8523,-5.8502,-5.8567,-5.8557,-5.8664,-5.868,-5.868,-5.8675,-5.8682,-5.8681,-5.8701,-5.8687,-5.8665,-5.8664,-5.8662,-5.8661,0,-5.8237,-5.8233,-5.835,-5.8378,-5.8387,-5.8468,-5.8491,-5.8555,-5.8557,-5.8645,-5.8664,-5.8667,-5.8741,-5.8733,-5.8816,-5.8809,-5.8941,-5.8923,-5.8928,-5.8923,-5.9012,-5.9003,-5.9307,-5.9345,-5.908,-5.9083,-5.9085,0,-5.8369,-5.8445,-5.8482,-5.8525,-5.8547,-5.8618,-5.8659,-5.8642,-5.8686,-5.8736,-5.8794,-5.8865,-5.8919,-5.9041,-5.9049,-5.9113,-5.9094,-5.9197,-5.9103,-5.9108,-5.9093,-5.9087,-5.9094,-5.9214,-5.9217,-5.922,-5.9222,0,-5.8603,-5.8598,-5.8659,-5.8721,-5.8772,-5.8819,-5.8862,-5.89,-5.8886,-5.8939,-5.9015,-5.9058,-5.9143,-5.9213,-5.9274,-5.9292,-5.9255,-5.9252,-5.9276,-5.9281,-5.9279,-5.9279,-5.8975,-5.9244,-5.9242,-5.924,-5.9239,-5.9238,-5.8773,-5.8837,-5.8873,-5.8943,-5.8975,-5.9016,-5.9077,-5.9088,-5.915,-5.9218,-5.9205,-5.929,-5.9327,-5.9404,-5.9429,-5.9495,-5.9458,-5.9493,-5.9501,-5.9509,-5.9518,-5.9273,-5.9507,-5.9506,-5.9505,-5.9505,-5.9504,0,-5.9002,-5.9023,-5.9088,-5.915,-5.9205,-5.9168,-5.9214,-5.9262,-5.9337,-5.9375,-5.9431,-5.9518,-5.9587,-5.9602,-5.9668,-5.9717,-5.9702,-5.9735,-5.9729,-5.9734,-5.9549,-5.9521,-5.9746,-5.9746,-5.9746,-5.9746,-5.9746,-5.9746,-5.9127,-5.9235,-5.9234,-5.9357,-5.9377,-5.946,-5.949,-5.9528,-5.9558,-5.9657,-5.9714,-5.9725,-5.9754,-5.9821,-5.9882,-5.9885,-5.991,-5.9949,-5.9945,-5.9771,-5.9747,-5.9724,-5.9697,-5.9956,-5.9956,-6.0124,-6.0125,-6.0127]},{"header":{"parameterUnit":"m.s-1","parameterCategory":1,"la1":30.2991,"la2":30.254,"lo1":-89.0895,"lo2":-89.0444,"dy":0.0017,"dx":0.0017,"nx":28,"ny":28,"refTime":"2025-04-01T09:00:00:Z","depth":0,"parameterNumber":3,"parameterNumberName":"V-component_of_WINDS"},"data":[0,0,0,0,0,0,0,0,0,0,0,0,0,0,0,0,0,0,0,0,0,0,0,0,0,0,0,0,0,0,0,0,0,0,0,0,0,0,0,0,0,0,0,0,0,0,0,0,0,0,0,0,0,0,0,0,0,0,2.9631,2.9632,0,2.9736,2.9737,2.9738,2.9803,2.9804,2.9804,2.9804,2.9906,2.9908,2.991,0,0,0,0,0,0,0,0,0,0,0,0,0,2.948,2.9483,2.9631,2.9632,2.9633,2.9736,2.9737,2.9739,2.9803,2.9804,2.9804,2.9805,2.9905,2.9908,2.9911,0,0,0,0,0,0,0,0,0,0,0,0,0,2.9561,2.9484,2.963,2.9678,2.9683,2.9735,2.9737,2.9739,2.9803,2.9804,2.9804,2.9805,2.9904,2.9907,2.9911,2.9922,0,0,2.9922,2.9923,0,0,0,0,0,0,0,0,2.9557,2.9567,2.967,2.9675,2.9681,2.9757,2.9722,2.98,2.9803,2.9757,2.9804,2.9805,2.9855,2.9863,2.9881,2.9927,2.9931,2.9922,2.9924,2.9926,2.9927,0,0,0,0,0,0,0,2.9551,2.9563,2.9672,2.9671,2.9678,2.9692,2.9705,2.9737,2.9802,2.9761,2.9766,2.9778,2.9859,2.9878,2.9884,2.9932,2.9922,2.9925,2.9927,2.9929,2.9993,2.9993,0,0,0,0,0,0,2.9539,2.9558,2.9669,2.9675,2.9619,2.9695,2.9708,2.9732,2.9802,2.9813,2.9778,2.9781,2.9871,2.988,2.9888,2.9907,2.9926,2.9929,2.9931,2.9994,2.9993,2.9993,0,0,0,0,0,0,2.9535,2.9548,2.9665,2.9618,2.9634,2.9697,2.9723,2.9734,2.9753,2.9814,2.9826,2.9786,2.9872,2.9883,2.9914,2.9911,2.9931,2.9934,2.9994,2.9993,2.9993,2.9943,0,0,0,0,0,0,2.9531,2.9546,2.9552,2.9618,2.9636,2.969,2.9723,2.9735,2.976,2.9765,2.9825,2.9835,2.9873,2.9908,2.9917,2.9916,2.9937,2.9995,2.9994,2.9993,2.9945,2.9941,2.9937,0,0,0,0,0,2.9525,2.9532,2.9552,2.9565,2.9645,2.969,2.97,2.9746,2.9759,2.9765,2.9805,2.9833,2.991,2.9911,2.9922,2.9921,2.9995,2.9994,2.9993,2.9947,2.9941,2.9937,0,0,0,0,0,0,2.9463,2.9542,2.9565,2.9594,2.9635,2.9701,2.9709,2.9739,2.9775,2.9778,2.9831,2.9844,2.987,2.9898,2.9898,2.9936,2.9956,2.9957,2.9917,2.9912,2.9908,2.9901,2.994,0,0,0,0,0,2.9453,2.9484,2.9551,2.957,2.9589,2.9646,2.9667,2.9699,2.9743,2.976,2.9801,2.9841,2.9874,2.9894,2.9928,2.9949,2.9963,2.9955,2.995,2.9947,2.9947,2.9961,2.9958,2.999,2.999,2.999,0,0,2.9431,2.9479,2.9495,2.9558,2.9594,2.9624,2.966,2.9689,2.9712,2.9763,2.9796,2.9828,2.9875,2.9902,2.9915,2.9926,2.9942,2.9946,2.9942,2.9945,2.996,2.9957,2.9954,2.9989,2.9989,2.9989,0,0,2.9409,2.9447,2.9469,2.9504,2.9559,2.9596,2.9601,2.9663,2.9687,2.9721,2.976,2.9787,2.9842,2.9875,2.9899,2.989,2.9918,2.9899,2.9878,2.9891,2.9888,2.9887,2.9884,2.9882,2.9899,2.9899,2.9899,0,2.9375,2.9424,2.9475,2.9504,2.953,2.9581,2.9602,2.9633,2.9694,2.9711,2.9723,2.9795,2.9831,2.9866,2.9864,2.9882,2.9888,2.9893,2.9885,2.9884,2.9883,2.9881,2.9879,2.9897,2.9897,2.9897,2.9898,0,2.938,2.9413,2.9423,2.9485,2.9512,2.9537,2.959,2.9612,2.9641,2.9677,2.9711,2.9756,2.98,2.981,2.9838,2.985,2.9855,2.9875,2.9896,2.9876,2.9875,2.9875,2.9893,2.9894,2.9895,2.9895,0,0,2.9321,2.9412,2.9414,2.9443,2.9507,2.9533,2.9559,2.9605,2.9623,2.9663,2.9686,2.9733,2.9753,2.978,2.9812,2.9823,2.9814,2.9842,2.9844,2.9836,2.983,2.9815,2.9813,2.9833,2.9833,2.9833,2.9826,0,2.9308,2.9361,2.9408,2.9443,2.9474,2.9523,2.9545,2.9586,2.962,2.965,2.9687,2.972,2.9743,2.976,2.9773,2.9812,2.9814,2.9813,2.9854,2.9855,2.9841,2.9813,2.9797,2.9788,2.9826,2.9826,2.9826,0,2.9301,2.9343,2.9381,2.9443,2.9458,2.9478,2.9524,2.9553,2.96,2.9624,2.9655,2.9689,2.9718,2.9735,2.9775,2.9774,2.9793,2.9814,2.9815,2.9821,2.9839,2.9818,2.9786,2.9785,2.9826,2.9826,2.9826,0,2.9255,2.932,2.9352,2.9375,2.9448,2.9461,2.9492,2.954,2.9565,2.9604,2.9621,2.9662,2.9684,2.9714,2.9759,2.9767,2.9794,2.9815,2.9814,2.9813,2.9818,2.9817,2.9789,2.9829,2.9829,2.9829,2.9829,0,2.9237,2.9258,2.9333,2.9352,2.9378,2.9431,2.9454,2.9489,2.9531,2.9557,2.96,2.9623,2.968,2.971,2.9744,2.9772,2.9781,2.9801,2.981,2.9798,2.9795,2.9811,2.9813,2.9829,2.9829,2.9829,2.9829,0,2.919,2.9241,2.9279,2.9346,2.9363,2.9379,2.9436,2.9456,2.9493,2.9525,2.9535,2.9593,2.963,2.9677,2.9728,2.9751,2.9775,2.9789,2.976,2.9766,2.9763,2.9763,2.9745,2.9745,2.9783,2.9783,2.9782,0,2.9175,2.9194,2.9263,2.9285,2.9316,2.9349,2.9376,2.9428,2.9454,2.9509,2.9522,2.9563,2.9599,2.9655,2.97,2.9739,2.9754,2.9746,2.976,2.9748,2.9755,2.9754,2.9756,2.9742,2.9741,2.974,2.974,0,2.9144,2.9169,2.9207,2.9253,2.9284,2.9322,2.9362,2.9377,2.9437,2.9463,2.9503,2.9531,2.9584,2.9624,2.967,2.9699,2.9729,2.9735,2.9737,2.9725,2.9708,2.9718,2.9751,2.9735,2.9736,2.9736,2.9736,2.9736,2.9114,2.9133,2.9186,2.9226,2.9262,2.9299,2.9322,2.9363,2.9398,2.9447,2.9475,2.9514,2.956,2.9625,2.9653,2.9683,2.9695,2.9697,2.9698,2.9698,2.9695,2.9703,2.9691,2.9692,2.9692,2.9692,2.9692,0,2.9086,2.9123,2.916,2.9216,2.9247,2.9275,2.9321,2.9345,2.938,2.9421,2.9456,2.9502,2.9541,2.9589,2.9631,2.9646,2.9661,2.9655,2.9655,2.9661,2.9682,2.9676,2.9642,2.9642,2.9642,2.9642,2.9642,2.9642,2.9076,2.911,2.9141,2.9193,2.9229,2.9269,2.9293,2.9327,2.9361,2.9411,2.9444,2.9476,2.9521,2.9566,2.9603,2.9616,2.9629,2.962,2.9637,2.9655,2.966,2.9664,2.9659,2.9622,2.9622,2.9614,2.9614,2.9614]}]]